Location: Hopkins Observatory
(42.6965°N, 73.1843°W)
Time: 06:40:41
(UTC-04:00)

UOSAT-12 - Visible Passes

Search period start: 28 June 2017 00:00
Search period end: 08 July 2017 00:00
Orbit: 602 x 652 km, 64.6° (Epoch: 27 June)

Date Brightness Start Highest point End Pass type
(mag) Time Alt. Az. Time Alt. Az. Time Alt. Az.
28 Jun 7.2 22:18:06 10° NNW 22:22:47 70° NE 22:25:21 26° SE visible
28 Jun 9.3 23:59:49 10° WNW 00:02:19 14° WSW 00:02:39 14° WSW visible
29 Jun 7.5 22:37:59 10° NW 22:42:34 56° WSW 22:44:38 30° S visible
30 Jun 8.0 21:17:49 10° NNW 21:22:16 41° NE 21:26:41 10° ESE visible
30 Jun 8.7 22:58:18 10° WNW 23:02:10 26° WSW 23:03:58 20° SSW visible
01 Jul 7.2 21:37:28 10° NNW 21:42:11 82° NE 21:46:03 15° SE visible
01 Jul 9.5 23:19:49 10° W 23:21:36 12° WSW 23:23:21 10° SW visible
02 Jul 7.9 21:57:25 10° NW 22:01:55 47° WSW 22:05:29 15° S visible
03 Jul 9.0 22:17:52 10° WNW 22:21:29 22° WSW 22:24:59 10° SSW visible
05 Jul 8.3 21:16:53 10° NW 21:21:15 40° WSW 21:25:36 10° S visible
06 Jul 9.4 21:37:31 10° WNW 21:40:47 19° WSW 21:44:03 10° SSW visible
